De Quincy Industrial Air Park, LA

12:40 PM CDT on May 26, 2017 (GMT -0500)
De Quincy Industrial Air Park

Weather History for K5R8 - May, 2014

Change the Weather History Date:

Saturday, May 17, 2014

  Actual Average (KCWF) Record (KCWF)
Temperature  
Mean Temperature 70 °F -  
Max Temperature 81 °F 83 °F 91 °F (1998)
Min Temperature 58 °F 68 °F 51 °F (2011)
Cooling Degree Days 4    
Growing Degree Days 20 (Base 50)    
Moisture  
Dew Point 59 °F    
Average Humidity 72    
Maximum Humidity 95    
Minimum Humidity 38    
Precipitation  
Precipitation 0.00 in - - ()
Sea Level Pressure  
Sea Level Pressure 30.08 in    
Wind  
Wind Speed 7 mph (South)    
Max Wind Speed 17 mph    
Max Gust Speed 26 mph    
Visibility 10 miles    
Events      
Averages and records for this station are not official NWS values.
T = Trace of Precipitation, MM = Missing Value Source: NWS Daily Summary

Daily Weather History Graph

Daily Weather History Graph

Search for Another Location

Airport or City:

Trip Planner

Search our weather history database for the weather conditions in past years. The results will help you decide how hot, cold, wet, or windy it might be!

Date:

Astronomy

May. 17, 2014 Rise Set
Actual Time 6:18 AM CDT 8:02 PM CDT
Civil Twilight 5:51 AM CDT 8:28 PM CDT
Nautical Twilight 5:20 AM CDT 9:00 PM CDT
Astronomical Twilight 4:46 AM CDT 9:34 PM CDT
Moon 11:05 PM CDT (5/17) 9:01 AM CDT (5/17)
Length of Visible Light 14h 37m
Length of Day
13h 44m
Waning Gibbous, 89% of the Moon is Illuminated
May 17
Waning Gibbous
May 21
Last Quarter
May 28
New
Jun 5
First Quarter
Jun 12
Full

Hourly Weather History & Observations

Time (CDT) Temp. Heat Index Dew Point Humidity Pressure Visibility Wind Dir Wind Speed Gust Speed Precip Events Conditions
12:15 AM 61.2 °F - 56.5 °F 85% 30.09 in 10.0 mi SSE 4.6 mph - N/A   Clear
12:35 AM 60.1 °F - 56.3 °F 87% 30.08 in 10.0 mi SSE 4.6 mph - N/A   Clear
12:55 AM 59.5 °F - 56.1 °F 88% 30.07 in 10.0 mi SSE 4.6 mph - N/A   Clear
1:15 AM 59.4 °F - 55.9 °F 88% 30.06 in 10.0 mi SSE 5.8 mph - N/A   Clear
1:35 AM 59.0 °F - 55.6 °F 88% 30.06 in 10.0 mi SSE 5.8 mph - N/A   Clear
1:55 AM 59.2 °F - 55.6 °F 88% 30.05 in 10.0 mi SSE 4.6 mph - N/A   Clear
2:15 AM 59.5 °F - 55.6 °F 87% 30.05 in 10.0 mi South 4.6 mph - N/A   Clear
2:35 AM 59.4 °F - 55.6 °F 87% 30.05 in 10.0 mi South 4.6 mph - N/A   Clear
2:55 AM 59.7 °F - 56.1 °F 88% 30.04 in 10.0 mi South 3.5 mph - N/A   Clear
3:15 AM 59.5 °F - 56.3 °F 89% 30.04 in 10.0 mi SSE 3.5 mph - N/A   Clear
3:35 AM 59.4 °F - 56.5 °F 90% 30.05 in 10.0 mi SSE 3.5 mph - N/A   Clear
3:55 AM 59.4 °F - 56.5 °F 90% 30.05 in 10.0 mi SSE 3.5 mph - N/A   Clear
4:15 AM 59.0 °F - 56.5 °F 91% 30.05 in 10.0 mi SSE 4.6 mph - N/A   Clear
4:35 AM 59.2 °F - 56.7 °F 91% 30.05 in 10.0 mi SSE 4.6 mph - N/A   Clear
4:55 AM 59.2 °F - 56.8 °F 92% 30.05 in 10.0 mi SSE 3.5 mph - N/A   Clear
5:15 AM 59.5 °F - 57.0 °F 91% 30.05 in 10.0 mi SE 3.5 mph - N/A   Clear
5:35 AM 58.8 °F - 56.5 °F 92% 30.04 in 10.0 mi Calm Calm - N/A   Clear
5:55 AM 58.3 °F - 56.5 °F 94% 30.05 in 10.0 mi SE 3.5 mph - N/A   Clear
6:15 AM 58.1 °F - 56.7 °F 95% 30.05 in 10.0 mi SE 3.5 mph - N/A   Clear
6:35 AM 59.5 °F - 57.9 °F 94% 30.06 in 10.0 mi SE 3.5 mph - N/A   Clear
6:55 AM 59.7 °F - 57.9 °F 94% 30.06 in 10.0 mi SE 3.5 mph - N/A   Clear
7:15 AM 62.1 °F - 59.5 °F 91% 30.07 in 10.0 mi SSE 3.5 mph - N/A   Clear
7:35 AM 63.5 °F - 60.6 °F 90% 30.07 in 10.0 mi SSE 5.8 mph - N/A   Clear
7:55 AM 65.3 °F - 61.7 °F 88% 30.07 in 10.0 mi SSE 8.1 mph - N/A   Clear
8:15 AM 67.6 °F - 63.0 °F 85% 30.08 in 10.0 mi SSE 8.1 mph - N/A   Clear
8:35 AM 69.3 °F - 63.1 °F 81% 30.09 in 10.0 mi South 8.1 mph - N/A   Clear
8:55 AM 70.9 °F - 63.5 °F 77% 30.09 in 10.0 mi South 9.2 mph - N/A   Scattered Clouds
9:15 AM 72.0 °F - 63.5 °F 75% 30.09 in 10.0 mi SSE 10.4 mph 17.3 mph N/A   Scattered Clouds
9:35 AM 73.6 °F - 62.4 °F 68% 30.10 in 10.0 mi South 12.7 mph 18.4 mph N/A   Scattered Clouds
9:55 AM 74.7 °F - 61.5 °F 63% 30.10 in 10.0 mi South 13.8 mph 17.3 mph N/A   Clear
10:15 AM 75.7 °F - 60.3 °F 59% 30.12 in 10.0 mi South 9.2 mph 17.3 mph N/A   Clear
10:35 AM 76.8 °F - 60.3 °F 56% 30.13 in 10.0 mi SW 9.2 mph 16.1 mph N/A   Clear
10:55 AM 77.0 °F - 59.9 °F 55% 30.13 in 10.0 mi SSW 11.5 mph - N/A   Scattered Clouds
11:15 AM 77.5 °F - 59.7 °F 54% 30.13 in 10.0 mi South 13.8 mph 18.4 mph N/A   Clear
11:35 AM 77.9 °F - 59.9 °F 54% 30.13 in 10.0 mi South 10.4 mph 16.1 mph N/A   Scattered Clouds
11:55 AM 79.0 °F - 60.8 °F 54% 30.12 in 10.0 mi South 12.7 mph 20.7 mph N/A   Scattered Clouds
12:15 PM 78.6 °F - 60.4 °F 54% 30.12 in 10.0 mi South 12.7 mph 20.7 mph N/A   Scattered Clouds
12:35 PM 79.2 °F - 61.0 °F 54% 30.12 in 10.0 mi South 13.8 mph 18.4 mph N/A   Scattered Clouds
12:55 PM 80.2 °F 80.5 °F 57.4 °F 45% 30.11 in 10.0 mi SSW 16.1 mph 20.7 mph N/A   Scattered Clouds
1:15 PM 80.6 °F 80.6 °F 55.9 °F 43% 30.11 in 10.0 mi SSW 12.7 mph 18.4 mph N/A   Scattered Clouds
1:35 PM 80.4 °F 80.3 °F 54.9 °F 41% 30.10 in 10.0 mi South 12.7 mph 25.3 mph N/A   Clear
1:55 PM 80.4 °F - 52.7 °F 38% 30.09 in 10.0 mi South 16.1 mph 24.2 mph N/A   Clear
2:15 PM 80.6 °F 80.5 °F 55.8 °F 42% 30.09 in 10.0 mi South 15.0 mph 23.0 mph N/A   Clear
2:35 PM 81.0 °F 81.2 °F 58.3 °F 46% 30.08 in 10.0 mi SSW 15.0 mph 23.0 mph N/A   Clear
2:55 PM 80.6 °F 81.5 °F 60.8 °F 51% 30.07 in 10.0 mi SSW 11.5 mph 26.5 mph N/A   Scattered Clouds
3:15 PM 80.2 °F 81.0 °F 60.3 °F 50% 30.07 in 10.0 mi South 17.3 mph 21.9 mph N/A   Scattered Clouds
3:35 PM 79.9 °F - 59.5 °F 50% 30.07 in 10.0 mi South 16.1 mph 23.0 mph N/A   Scattered Clouds
3:55 PM 80.1 °F 80.8 °F 59.2 °F 49% 30.07 in 10.0 mi SSW 13.8 mph 26.5 mph N/A   Clear
4:15 PM 79.7 °F - 59.4 °F 50% 30.06 in 10.0 mi South 13.8 mph 21.9 mph N/A   Clear
4:35 PM 79.2 °F - 58.6 °F 49% 30.06 in 10.0 mi South 15.0 mph 20.7 mph N/A   Clear
4:55 PM 78.3 °F - 59.2 °F 52% 30.06 in 10.0 mi South 9.2 mph 19.6 mph N/A   Clear
5:15 PM 78.3 °F - 59.2 °F 52% 30.06 in 10.0 mi South 10.4 mph 19.6 mph N/A   Clear
5:35 PM 77.9 °F - 59.0 °F 52% 30.06 in 10.0 mi South 8.1 mph - N/A   Clear
5:55 PM 77.2 °F - 59.5 °F 54% 30.06 in 10.0 mi South 12.7 mph 16.1 mph N/A   Clear
6:15 PM 76.6 °F - 60.3 °F 57% 30.07 in 10.0 mi South 10.4 mph - N/A   Clear
6:35 PM 75.2 °F - 60.4 °F 60% 30.07 in 10.0 mi South 9.2 mph 16.1 mph N/A   Clear
6:55 PM 74.7 °F - 60.8 °F 62% 30.07 in 10.0 mi South 8.1 mph - N/A   Clear
7:15 PM 73.6 °F - 60.6 °F 64% 30.07 in 10.0 mi South 9.2 mph 16.1 mph N/A   Clear
7:35 PM 72.5 °F - 60.8 °F 67% 30.08 in 10.0 mi South 6.9 mph - N/A   Clear
7:55 PM 71.1 °F - 61.2 °F 71% 30.08 in 10.0 mi South 5.8 mph - N/A   Clear
8:15 PM 70.0 °F - 61.2 °F 73% 30.09 in 10.0 mi South 3.5 mph - N/A   Scattered Clouds
8:35 PM 69.1 °F - 61.5 °F 77% 30.09 in 10.0 mi SSE 5.8 mph - N/A   Scattered Clouds
8:55 PM 68.2 °F - 61.7 °F 80% 30.09 in 10.0 mi SSE 5.8 mph - N/A   Clear
9:15 PM 67.6 °F - 61.7 °F 81% 30.09 in 10.0 mi SSE 4.6 mph - N/A   Clear
9:35 PM 67.3 °F - 61.7 °F 82% 30.09 in 10.0 mi SSE 4.6 mph - N/A   Clear
9:55 PM 66.7 °F - 61.7 °F 84% 30.09 in 10.0 mi SE 3.5 mph - N/A   Clear
10:15 PM 66.2 °F - 61.7 °F 85% 30.10 in 10.0 mi Calm Calm - N/A   Clear
10:35 PM 65.3 °F - 61.7 °F 88% 30.10 in 10.0 mi Calm Calm - N/A   Clear
11:15 PM 63.3 °F - 60.8 °F 91% 30.10 in 10.0 mi Calm Calm - N/A   Clear
11:35 PM 62.2 °F - 60.4 °F 94% 30.10 in 10.0 mi Calm Calm - N/A   Clear
11:55 PM 61.9 °F - 60.1 °F 94% 30.10 in 10.0 mi Calm Calm - N/A   Clear